Location: ???????
(55.4362°N, 38.1183°E)
Time: 06:33:47
(UTC+00:00)

Nauka - Pass Details

Date: 03 October 2021
Orbit: 417 x 423 km, 51.6° (Epoch: 23 October)

Event Time Altitude Azimuth Distance (km) Brightness Sun altitude
Rises 16:45:44 0° 272° (W) 2,366 ? -16.0°
Reaches altitude 10° 16:49:05 10° 236° (SW) 1,499 ? -16.5°
Maximum altitude 16:50:09 11° 217° (SW) 1,426 ? -16.6°
Drops below altitude 10° 16:51:13 10° 199° (SSW) 1,497 ? -16.8°
Enters shadow 16:52:20 - 183° (S) 1,700 ? -16.9°
